User: anonymous   Login
Location: Unspecified
(0.0000°N, 0.0000°E)
Time: 06:48:34
(UTC+00:00)
Language:

Nadezhda 2 - Orbit

View from above orbital plane
View from above orbital plane
View from above satellite
View from above satellite

Ground track
Ground track

The orbit data is extracted from the following two-line orbital elements,

1 20508U 90017A   19082.95683392 +.00000024 +00000-0 +95853-5 0  9998
2 20508 082.9561 225.5966 0043044 244.0959 233.6982 13.74271892457442
Epoch (UTC): 23 March 2019 22:57:50
Eccentricity: 0.0043044
inclination: 82.9561°
perigee height: 952 km
apogee height: 1016 km
right ascension of ascending node: 225.5966°
argument of perigee: 244.0959°
revolutions per day: 13.74271892
mean anomaly at epoch: 233.6982°
orbit number at epoch: 45744

The dashed part of the orbit path shows where the satellite is in the earth's shadow,  

DLR